[[{"header":{"parameterUnit":"m.s-1","parameterCategory":1,"la1":30.2991,"la2":30.254,"lo1":-89.0895,"lo2":-89.0444,"dy":0.0017,"dx":0.0017,"nx":28,"ny":28,"refTime":"2025-08-17T21:00:00:Z","depth":0,"parameterNumber":2,"parameterNumberName":"U-component_of_WINDS"},"data":[0,0,0,0,0,0,0,0,0,0,0,0,0,0,0,0,0,0,0,0,0,0,0,0,0,0,0,0,0,0,0,0,0,0,0,0,0,0,0,0,0,0,0,0,0,0,0,0,0,0,0,0,0,0,0,0,0,0,0.8156,0.8158,0,0.833,0.8332,0.8334,0.8357,0.8356,0.8354,0.8352,0.8535,0.8541,0.8547,0,0,0,0,0,0,0,0,0,0,0,0,0,0.7843,0.7849,0.8155,0.8158,0.816,0.833,0.8332,0.8335,0.8358,0.8356,0.8354,0.8352,0.8532,0.854,0.8548,0,0,0,0,0,0,0,0,0,0,0,0,0,0.7994,0.7851,0.8155,0.8192,0.8197,0.833,0.8333,0.8335,0.8358,0.8355,0.8353,0.8351,0.853,0.8539,0.8549,0.8658,0,0,0.8578,0.8582,0,0,0,0,0,0,0,0,0.7986,0.8006,0.8184,0.8189,0.8195,0.8319,0.8289,0.8444,0.8359,0.8297,0.8352,0.8349,0.8465,0.848,0.8518,0.8667,0.8675,0.8579,0.8585,0.8589,0.8592,0,0,0,0,0,0,0,0.7975,0.7999,0.8225,0.8187,0.8193,0.82,0.8219,0.8319,0.8393,0.8302,0.8304,0.8324,0.8468,0.8509,0.8523,0.8677,0.8579,0.8587,0.8593,0.8597,0.8922,0.8925,0,0,0,0,0,0,0.7958,0.799,0.8219,0.823,0.8082,0.8207,0.8228,0.8282,0.8392,0.8406,0.8326,0.8325,0.8494,0.8512,0.8529,0.8663,0.8589,0.8598,0.8603,0.8919,0.8923,0.8926,0,0,0,0,0,0,0.7951,0.7978,0.8212,0.811,0.8141,0.8216,0.8276,0.8287,0.8328,0.841,0.8424,0.8355,0.8493,0.8516,0.8625,0.867,0.8602,0.8611,0.8916,0.892,0.8924,0.8932,0,0,0,0,0,0,0.7942,0.7975,0.8018,0.8111,0.8146,0.8305,0.8278,0.8292,0.8344,0.8344,0.844,0.8454,0.8492,0.8611,0.8635,0.8682,0.8618,0.8912,0.8918,0.8923,0.8928,0.8936,0.8943,0,0,0,0,0,0.7931,0.8014,0.802,0.8047,0.82,0.8307,0.8327,0.8369,0.8348,0.8391,0.8443,0.8451,0.8661,0.8622,0.8649,0.8699,0.891,0.8916,0.8922,0.8925,0.8935,0.8943,0,0,0,0,0,0,0.7925,0.8027,0.8034,0.815,0.822,0.8311,0.8366,0.8378,0.8456,0.8452,0.8501,0.8523,0.863,0.8676,0.863,0.881,0.8783,0.8796,0.8776,0.8786,0.8793,0.8779,0.8626,0,0,0,0,0,0.7937,0.8015,0.81,0.8194,0.8229,0.8291,0.834,0.8365,0.844,0.847,0.853,0.8603,0.8685,0.8738,0.8819,0.8935,0.8956,0.8983,0.899,0.8996,0.9006,0.9069,0.9081,0.8947,0.8947,0.8947,0,0,0.7964,0.8029,0.8075,0.8195,0.8252,0.8331,0.8316,0.8402,0.8461,0.8483,0.8589,0.8636,0.872,0.8833,0.8886,0.8875,0.9047,0.9004,0.9008,0.9015,0.9077,0.9089,0.9101,0.8951,0.8951,0.895,0,0,0.8052,0.8109,0.8193,0.825,0.8335,0.8376,0.8396,0.8485,0.8517,0.8624,0.8641,0.8713,0.8854,0.8913,0.8961,0.9069,0.9078,0.9094,0.9132,0.9193,0.9203,0.9213,0.9249,0.9262,0.9103,0.9103,0.9103,0,0.8074,0.8193,0.8235,0.8319,0.837,0.8392,0.8477,0.8531,0.8639,0.8674,0.8659,0.8835,0.8894,0.9019,0.9045,0.9084,0.9108,0.9083,0.9198,0.9208,0.9218,0.9253,0.9267,0.9104,0.9104,0.9104,0.9104,0,0.8215,0.8298,0.8355,0.8457,0.8515,0.8599,0.8653,0.8708,0.8728,0.877,0.8878,0.8949,0.9042,0.9074,0.9096,0.9203,0.9193,0.9188,0.9162,0.9231,0.9265,0.9279,0.9106,0.9106,0.9105,0.9105,0,0,0.8305,0.8427,0.8447,0.8492,0.8588,0.8653,0.8738,0.8828,0.8872,0.8946,0.9018,0.9135,0.9131,0.9185,0.9214,0.9267,0.9345,0.9255,0.9258,0.9268,0.9465,0.9467,0.9482,0.9352,0.9355,0.9358,0.9457,0,0.8403,0.8553,0.8592,0.872,0.8796,0.8817,0.8891,0.8957,0.8999,0.907,0.9116,0.9198,0.9186,0.9219,0.9273,0.9324,0.9385,0.9318,0.9419,0.9422,0.9396,0.9501,0.9504,0.9594,0.9471,0.9474,0.9475,0,0.8537,0.8611,0.8746,0.8829,0.8862,0.8928,0.9012,0.908,0.9156,0.9182,0.9242,0.9264,0.9353,0.9323,0.9445,0.9398,0.9442,0.9473,0.9478,0.9488,0.9452,0.9512,0.9625,0.9638,0.9497,0.9495,0.9494,0,0.8586,0.872,0.8817,0.8856,0.8956,0.9001,0.9045,0.9118,0.9169,0.9244,0.9277,0.9362,0.9408,0.9472,0.9517,0.9491,0.9635,0.9609,0.9658,0.9657,0.9687,0.9684,0.9807,0.9718,0.9717,0.9717,0.9717,0,0.869,0.8771,0.884,0.89,0.8992,0.9036,0.9125,0.917,0.9234,0.9303,0.9328,0.9392,0.9447,0.9519,0.9555,0.9649,0.967,0.9694,0.9702,0.9691,0.9687,0.9719,0.9713,0.9721,0.972,0.9719,0.9719,0,0.8761,0.881,0.8917,0.9003,0.9026,0.909,0.9163,0.9222,0.9263,0.935,0.9373,0.9439,0.9524,0.9575,0.9683,0.9707,0.9811,0.9818,0.9785,0.9788,0.9834,0.9829,0.9981,1.0002,0.99,0.9901,0.9901,0,0.8823,0.8885,0.8977,0.9024,0.9068,0.9144,0.9196,0.9242,0.9295,0.9384,0.9432,0.9518,0.9589,0.9725,0.9782,0.9865,0.9872,0.992,0.9885,0.9871,0.9871,0.9866,0.9871,0.9925,0.9926,0.9927,0.9928,0,0.8927,0.8948,0.9021,0.9103,0.9163,0.923,0.9297,0.9334,0.9391,0.9449,0.9535,0.9591,0.97,0.9785,0.9872,0.9918,0.9932,0.9938,0.9954,0.9942,0.992,0.993,0.9799,0.9934,0.9934,0.9933,0.9933,0.9932,0.8995,0.905,0.9123,0.9203,0.9257,0.9318,0.9377,0.9425,0.9498,0.9589,0.9612,0.9703,0.9775,0.9893,0.9941,1.0012,1.0004,1.0027,1.0033,1.0038,1.0037,0.9909,1.0028,1.0028,1.0028,1.0028,1.0028,0,0.9099,0.9146,0.9219,0.931,0.9373,0.938,0.9453,0.9505,0.9584,0.965,0.9719,0.9818,0.99,0.9963,1.0047,1.0092,1.0101,1.0113,1.0109,1.0119,1.0041,1.0018,1.0104,1.0104,1.0104,1.0104,1.0104,1.0104,0.916,0.9254,0.9284,0.9405,0.9452,0.9539,0.958,0.9636,0.9689,0.9797,0.9865,0.9906,0.997,1.0059,1.0134,1.0151,1.018,1.019,1.0208,1.0133,1.0125,1.0117,1.0095,1.0197,1.0197,1.028,1.0281,1.0281]},{"header":{"parameterUnit":"m.s-1","parameterCategory":1,"la1":30.2991,"la2":30.254,"lo1":-89.0895,"lo2":-89.0444,"dy":0.0017,"dx":0.0017,"nx":28,"ny":28,"refTime":"2025-08-17T21:00:00:Z","depth":0,"parameterNumber":3,"parameterNumberName":"V-component_of_WINDS"},"data":[0,0,0,0,0,0,0,0,0,0,0,0,0,0,0,0,0,0,0,0,0,0,0,0,0,0,0,0,0,0,0,0,0,0,0,0,0,0,0,0,0,0,0,0,0,0,0,0,0,0,0,0,0,0,0,0,0,0,2.2547,2.2546,0,2.2528,2.2527,2.2527,2.2503,2.2502,2.2502,2.2501,2.2479,2.2478,2.2478,0,0,0,0,0,0,0,0,0,0,0,0,0,2.2555,2.2555,2.2547,2.2546,2.2546,2.2528,2.2527,2.2527,2.2503,2.2502,2.2502,2.2501,2.2479,2.2478,2.2478,0,0,0,0,0,0,0,0,0,0,0,0,0,2.2545,2.2555,2.2547,2.2532,2.253,2.2528,2.2527,2.2527,2.2503,2.2502,2.2502,2.2501,2.2479,2.2478,2.2478,2.2488,0,0,2.2477,2.2477,0,0,0,0,0,0,0,0,2.2546,2.2545,2.2534,2.2533,2.2531,2.2517,2.2522,2.2514,2.2503,2.2513,2.2501,2.2501,2.2492,2.249,2.2488,2.2487,2.2486,2.2477,2.2477,2.2477,2.2476,0,0,0,0,0,0,0,2.2547,2.2546,2.2539,2.2534,2.2532,2.2524,2.2522,2.252,2.2506,2.2512,2.251,2.2509,2.2491,2.2488,2.2487,2.2485,2.2477,2.2477,2.2476,2.2476,2.2485,2.2486,0,0,0,0,0,0,2.255,2.2546,2.254,2.2538,2.2537,2.2524,2.2522,2.2522,2.2506,2.2503,2.2509,2.2508,2.2489,2.2487,2.2486,2.2493,2.2477,2.2476,2.2476,2.2485,2.2485,2.2486,0,0,0,0,0,0,2.255,2.255,2.254,2.2542,2.254,2.2525,2.2525,2.2522,2.252,2.2504,2.25,2.251,2.2489,2.2487,2.2486,2.2492,2.2476,2.2476,2.2484,2.2485,2.2486,2.2509,0,0,0,0,0,0,2.2551,2.255,2.2556,2.2542,2.254,2.2543,2.2525,2.2522,2.2519,2.2517,2.2503,2.25,2.2488,2.2487,2.2486,2.2491,2.2475,2.2484,2.2485,2.2485,2.2508,2.251,2.2513,0,0,0,0,0,2.2551,2.2563,2.2556,2.2555,2.2547,2.2544,2.2542,2.2529,2.252,2.2524,2.2513,2.2501,2.2492,2.2487,2.2486,2.2491,2.2483,2.2484,2.2485,2.2507,2.251,2.2513,0,0,0,0,0,0,2.2577,2.2561,2.2553,2.2562,2.2554,2.254,2.2544,2.2533,2.2528,2.2526,2.2508,2.2505,2.2506,2.2499,2.2494,2.2497,2.2485,2.2486,2.2502,2.2505,2.2507,2.2509,2.2475,0,0,0,0,0,2.2584,2.2585,2.257,2.2578,2.2575,2.256,2.2559,2.2548,2.254,2.2536,2.2525,2.2516,2.251,2.2507,2.2502,2.2506,2.2501,2.2509,2.2511,2.2513,2.2514,2.2512,2.2514,2.2489,2.2489,2.2489,0,0,2.2598,2.2589,2.2591,2.2583,2.2577,2.2575,2.2558,2.2558,2.2556,2.2536,2.2535,2.2526,2.2514,2.2515,2.2515,2.2509,2.2519,2.2515,2.2517,2.2516,2.2513,2.2515,2.2517,2.249,2.249,2.249,0,0,2.2622,2.2617,2.2622,2.2614,2.2604,2.2593,2.2594,2.2581,2.2574,2.2573,2.2556,2.2552,2.2545,2.2535,2.253,2.2546,2.2533,2.2544,2.2557,2.2555,2.2557,2.2559,2.2562,2.2563,2.2545,2.2545,2.2545,0,2.264,2.2639,2.2625,2.2625,2.2621,2.2602,2.2605,2.2598,2.2586,2.2583,2.2576,2.2563,2.2554,2.2551,2.2554,2.2551,2.2549,2.2546,2.2559,2.256,2.2561,2.2564,2.2565,2.2546,2.2546,2.2546,2.2546,0,2.266,2.2659,2.2664,2.2652,2.2648,2.265,2.2633,2.2631,2.262,2.2609,2.2605,2.2593,2.2583,2.2582,2.2572,2.2576,2.2572,2.2562,2.255,2.2565,2.2567,2.2568,2.2548,2.2548,2.2547,2.2547,0,0,2.2702,2.268,2.2682,2.2675,2.266,2.2658,2.2657,2.2647,2.2644,2.2635,2.2631,2.2623,2.2613,2.2606,2.2595,2.2593,2.2602,2.2583,2.2582,2.2585,2.2602,2.2609,2.2611,2.2594,2.2594,2.2594,2.2603,0,2.2721,2.272,2.2705,2.2707,2.2703,2.2684,2.2682,2.2671,2.266,2.2654,2.2641,2.2634,2.2623,2.2618,2.2616,2.2602,2.2605,2.2601,2.2588,2.2588,2.2591,2.2612,2.262,2.2628,2.2604,2.2604,2.2604,0,2.2745,2.2737,2.2738,2.272,2.2718,2.2717,2.2705,2.27,2.2686,2.2677,2.2668,2.2655,2.2649,2.2638,2.2628,2.2625,2.2619,2.261,2.261,2.2608,2.2596,2.2608,2.2631,2.2632,2.2605,2.2605,2.2605,0,2.2771,2.2761,2.2759,2.2754,2.2734,2.2733,2.2724,2.2709,2.2703,2.2692,2.2687,2.2675,2.2668,2.2658,2.264,2.2634,2.2631,2.262,2.2622,2.2622,2.2622,2.2622,2.2642,2.262,2.262,2.262,2.262,0,2.2794,2.2794,2.277,2.2769,2.2768,2.275,2.2749,2.2738,2.2724,2.2719,2.2701,2.2696,2.2673,2.2664,2.265,2.2642,2.2639,2.263,2.2626,2.2631,2.2632,2.2626,2.2625,2.262,2.262,2.262,2.262,0,2.2823,2.2808,2.2804,2.2784,2.2779,2.2779,2.2761,2.2757,2.2744,2.2737,2.2734,2.2713,2.2701,2.2682,2.2665,2.2655,2.2649,2.2644,2.2654,2.2652,2.2654,2.2654,2.2671,2.2671,2.265,2.265,2.265,0,2.2838,2.2838,2.2818,2.2813,2.2805,2.2798,2.2791,2.2772,2.2765,2.2747,2.2745,2.2732,2.272,2.2702,2.2684,2.2669,2.2662,2.2669,2.266,2.2664,2.266,2.2659,2.2658,2.2671,2.2671,2.2671,2.2672,0,2.2864,2.2856,2.2848,2.2836,2.2828,2.2818,2.2806,2.2803,2.278,2.2773,2.2761,2.2752,2.2734,2.272,2.2703,2.2691,2.2677,2.2675,2.2674,2.2679,2.2684,2.2679,2.2659,2.2674,2.2674,2.2674,2.2674,2.2674,2.2885,2.2883,2.2868,2.2858,2.2847,2.2836,2.2831,2.2817,2.2807,2.2791,2.278,2.2767,2.275,2.2725,2.2714,2.2702,2.2696,2.2696,2.2696,2.2696,2.2696,2.2687,2.2699,2.2699,2.2699,2.2699,2.2699,0,2.2909,2.2897,2.2889,2.2873,2.2864,2.2852,2.2838,2.2831,2.2821,2.2806,2.2795,2.2779,2.2765,2.2745,2.2729,2.2723,2.2716,2.2719,2.2719,2.2716,2.2704,2.2705,2.2725,2.2725,2.2725,2.2725,2.2725,2.2725,2.292,2.2914,2.2904,2.2891,2.2879,2.2868,2.2861,2.2849,2.2837,2.2821,2.2809,2.2796,2.2778,2.276,2.2745,2.2739,2.2733,2.2738,2.273,2.2719,2.2717,2.2715,2.2716,2.2737,2.2737,2.2743,2.2743,2.2743]}]]